[[{"header":{"parameterUnit":"m.s-1","parameterCategory":1,"la1":30.2992,"la2":30.254,"lo1":-89.0895,"lo2":-89.0443,"dy":0.0025,"dx":0.0025,"nx":19,"ny":19,"refTime":"2026-04-04T03:00:00:Z","depth":0,"parameterNumber":2,"parameterNumberName":"U-component_of_WINDS"},"data":[0,0,0,-4.3348,-4.3352,-4.3567,-4.3568,-4.3841,-4.3844,0,0,0,0,0,0,0,0,0,0,0,-4.3282,-4.3284,-4.3347,-4.3353,-4.3567,-4.3568,-4.3841,-4.3844,0,0,0,0,0,0,0,0,0,0,0,-4.3281,-4.3284,-4.3286,-4.3353,-4.3567,-4.3568,-4.384,-4.3679,0,0,0,0,0,0,0,0,0,0,-4.3471,-4.3408,-4.3283,-4.3286,-4.3355,-4.3566,-4.3568,-4.3671,-4.3689,-4.3743,0,-4.379,0,-4.3821,-4.3862,-4.3863,0,0,0,-4.3354,-4.3394,-4.3453,-4.3286,-4.3357,-4.3566,-4.347,-4.3681,-4.3701,-4.3767,-4.3794,-4.3804,-4.3826,-4.3863,-4.3865,-4.4171,-4.4172,0,0,-4.3342,-4.332,-4.3439,-4.3466,-4.3432,-4.3464,-4.3477,-4.3693,-4.3722,-4.3795,-4.3811,-4.383,-4.3865,-4.3867,-4.417,-4.4171,0,0,0,-4.3307,-4.3312,-4.3366,-4.3455,-4.3493,-4.347,-4.3485,-4.3712,-4.3732,-4.3814,-4.3833,-4.3867,-4.387,-4.4168,-4.417,-4.4214,0,0,0,-4.33,-4.3291,-4.3361,-4.3349,-4.3489,-4.3605,-4.3499,-4.3717,-4.3742,-4.3832,-4.3867,-4.3873,-4.4167,-4.4169,-4.421,-4.4238,0,0,0,-4.3269,-4.3288,-4.3318,-4.3348,-4.3439,-4.3602,-4.3634,-4.3723,-4.3754,-4.3863,-4.3874,-4.4166,-4.4169,-4.4206,-4.4232,-4.4312,0,0,0,-4.3229,-4.3355,-4.3318,-4.3467,-4.3437,-4.3628,-4.3633,-4.3777,-4.3876,-4.3868,-4.4167,-4.417,-4.4205,-4.4228,-4.4307,-4.4373,-4.4398,0,0,-4.3375,-4.3371,-4.3461,-4.3434,-4.3626,-4.3597,-4.3797,-4.3908,-4.394,-4.4093,-4.41,-4.4212,-4.4232,-4.4311,-4.4554,-4.4574,0,0,0,-4.3499,-4.3563,-4.3618,-4.3711,-4.38,-4.3878,-4.3962,-4.4004,-4.4135,-4.4013,-4.4264,-4.4276,-4.4324,-4.4356,-4.4373,-4.4415,-4.4185,-4.4184,-4.4184,-4.3672,-4.3705,-4.3855,-4.3914,-4.4005,-4.4091,-4.4168,-4.4239,-4.4247,-4.4306,-4.435,-4.4494,-4.4531,-4.4544,-4.4587,-4.4389,-4.439,-4.439,-4.439,-4.3887,-4.3981,-4.399,-4.4137,-4.4173,-4.4298,-4.4387,-4.4388,-4.451,-4.4463,-4.4506,-4.4448,-4.4565,-4.4604,-4.4394,-4.4393,-4.4393,-4.4392,-4.4392,-4.4001,-4.4052,-4.4102,-4.424,-4.4344,-4.4401,-4.4518,-4.4547,-4.4575,-4.4618,-4.4668,-4.4668,-4.4669,-4.4641,-4.4641,-4.4642,-4.4642,-4.4643,-4.4643,-4.41,-4.4154,-4.4248,-4.4354,-4.4418,-4.4506,-4.4596,-4.4661,-4.4739,-4.4751,-4.4752,-4.4753,-4.4571,-4.4523,-4.4651,-4.4649,-4.4648,-4.4648,-4.4647,-4.4301,-4.426,-4.4405,-4.447,-4.4597,-4.4698,-4.4735,-4.4864,-4.4922,-4.4979,-4.4973,-4.4834,-4.4832,-4.4818,-4.4779,-4.4965,-4.4965,-4.4965,-4.4965,-4.4396,-4.4399,-4.4554,-4.4654,-4.4757,-4.4805,-4.497,-4.5042,-4.5111,-4.5149,-4.5127,-4.5079,-4.5064,-4.5071,-4.5052,-4.5015,-4.5258,-4.5258,-4.5258,-4.4521,-4.4535,-4.4668,-4.4734,-4.4837,-4.4924,-4.508,-4.5197,-4.5267,-4.5271,-4.518,-4.5167,-4.5089,-4.5062,-4.506,-4.503,-4.4963,0,0]},{"header":{"parameterUnit":"m.s-1","parameterCategory":1,"la1":30.2992,"la2":30.254,"lo1":-89.0895,"lo2":-89.0443,"dy":0.0025,"dx":0.0025,"nx":19,"ny":19,"refTime":"2026-04-04T03:00:00:Z","depth":0,"parameterNumber":3,"parameterNumberName":"V-component_of_WINDS"},"data":[0,0,0,3.3547,3.3549,3.3657,3.3657,3.379,3.3792,0,0,0,0,0,0,0,0,0,0,0,3.3513,3.3514,3.3546,3.3549,3.3657,3.3657,3.379,3.3792,0,0,0,0,0,0,0,0,0,0,0,3.3513,3.3514,3.3515,3.355,3.3657,3.3658,3.379,3.371,0,0,0,0,0,0,0,0,0,0,3.3606,3.3574,3.3514,3.3515,3.355,3.3657,3.3658,3.3706,3.3715,3.374,0,3.3763,0,3.378,3.38,3.3801,0,0,0,3.355,3.3566,3.3597,3.3515,3.3551,3.3657,3.3608,3.3711,3.3721,3.3752,3.3765,3.377,3.3782,3.3801,3.3802,3.3951,3.3951,0,0,3.3544,3.3531,3.359,3.3604,3.3589,3.3605,3.3612,3.3717,3.373,3.3766,3.3773,3.3784,3.3802,3.3803,3.395,3.3951,0,0,0,3.3526,3.3527,3.3555,3.3598,3.3618,3.3608,3.3616,3.3726,3.3736,3.3775,3.3786,3.3803,3.3804,3.3949,3.395,3.3973,0,0,0,3.3523,3.3517,3.3553,3.3546,3.3616,3.3673,3.3622,3.3729,3.3741,3.3785,3.3803,3.3806,3.3949,3.395,3.3971,3.3985,0,0,0,3.3507,3.3515,3.353,3.3545,3.3591,3.3672,3.3689,3.3732,3.3748,3.3801,3.3806,3.3948,3.395,3.3969,3.3982,3.4022,0,0,0,3.3485,3.3546,3.353,3.3603,3.359,3.3686,3.3688,3.3759,3.3807,3.3803,3.3949,3.395,3.3968,3.398,3.4019,3.4053,3.4066,0,0,3.3555,3.3554,3.3599,3.3587,3.3683,3.367,3.3769,3.3823,3.3839,3.3912,3.3916,3.3972,3.3982,3.4021,3.4142,3.4152,0,0,0,3.3617,3.3648,3.3676,3.3723,3.3769,3.3809,3.385,3.3871,3.3935,3.3875,3.3997,3.4003,3.4027,3.4043,3.4052,3.4074,3.3958,3.3957,3.3957,3.3696,3.3716,3.3791,3.3823,3.3869,3.3913,3.3951,3.3987,3.399,3.4019,3.404,3.4112,3.4131,3.4137,3.4159,3.406,3.406,3.406,3.406,3.3802,3.385,3.3857,3.3932,3.3951,3.4014,3.4059,3.406,3.412,3.4096,3.4118,3.409,3.4148,3.4168,3.4062,3.4061,3.4061,3.4061,3.4061,3.3856,3.3883,3.3909,3.3981,3.4034,3.4065,3.4124,3.4139,3.4153,3.4175,3.42,3.4199,3.4201,3.4186,3.4186,3.4186,3.4187,3.4187,3.4187,3.3902,3.3931,3.398,3.4036,3.407,3.4116,3.4163,3.4195,3.4235,3.4242,3.4242,3.4243,3.4151,3.4127,3.4191,3.419,3.419,3.4189,3.4189,3.4001,3.3982,3.4057,3.4091,3.4159,3.4212,3.4232,3.4298,3.4327,3.4356,3.4354,3.4283,3.4282,3.4275,3.4256,3.4349,3.4349,3.4349,3.4349,3.4047,3.4049,3.4131,3.4185,3.4239,3.4266,3.435,3.4388,3.4423,3.4443,3.4432,3.4407,3.44,3.4403,3.4394,3.4376,3.4498,3.4498,3.4498,3.4109,3.4118,3.4187,3.4224,3.4279,3.4326,3.4407,3.4467,3.4503,3.4505,3.4459,3.4452,3.4413,3.44,3.4398,3.4383,3.4351,0,0]}]]